STARLINK-4710, 53799

Orbit data source: Space-Track

STARLINK-4710, 53799 is a payload satellite owned by SpaceX/Seattle (US) in LEO that was launched on Sun, 11 Sep 2022 UTC via an FALCON 9 launch vehicle from the Air Force Eastern Test Range (AFETR). Payload-class satellites include a variety of spacecraft equipped with specific instruments for various scientific and technological missions. These include communications satellites like Starlink; space stations such as the ISS; scientific satellites like the Hubble; Earth observation satellites from companies like Planet Labs, Umbra, and HawkEye 360; GPS; miniature CubeSats for education and research; and military/defense satellites.

Loading next visibility...
Identifier
53799, 2022-111AC
Orbit
LEO
Country
Flag of USUS
Related business
Manufacturer
SpaceX/Seattle
Mission
Operational Commercial Communications
Bus & Motor
STARLINK, Unknown motor
Mass
305 kg wet, ~290 kg dry
Launch date (UTC)
2022-09-11 (3 years ago)
Launch vehicle
FALCON 9
Launch site
Air Force Eastern Test Range (AFETR)
Object type
Payload
Rocket body
Debris
Shape & HBR
Box + 1 Pan, 10.1 m
Radar Cross Section
13.562 m², Large (>1 m²)

Expand to show TLE details & history
Last TLE update: 19 hours ago

TLE from 19 hours ago
0 STARLINK-4710
1 53799U 22111AC  25340.67731339  .00003492  00000-0  23729-3 0  9997
2 53799  53.2212 321.7379 0001712 165.3713 194.7329 15.08858179179777
Epoch: 2025-12-06T16:15Z
TLE epoch observation values (Epoch: 2025-12-06T16:15:19.876Z)
Latitude
-0.00005°
Longitude
2.20343°
Altitude
541.731 km
Speed
7.592 km/s
True Right ascension
21h 26m 57s
True Declination
0° 00' 00"
Sunlit
Object was in daylight at epoch
Visualization orbit readout
Latitude
Unknown
Longitude
Unknown
Altitude
Unknown
Speed
Unknown
Apparent Right ascension
Unknown
Apparent Declination
Unknown
Sunlit
N/A
Visualization observer readout
Local Sidereal Time
08:54:21
Azimuth
Unknown
Elevation
Unknown
Doppler factor
Unknown
Orbital elements
Apogee altitude
541.117 km
Perigee altitude
538.748 km
Semi-major axis
6,918.069 km
Eccentricity
0.00017
Inclination
53.2212°
RAAN
321.7379°
Arg. of periapsis
165.3713°
True anomaly
194.72791°
Mean anomaly
194.7329°
Eccentric anomaly
194.73041°
Mean motion
3.77195 °/min
Orbital period
95.44 mins
BSTAR
0.00023729
Loading maneuver chart data...
Computing Atmospheric mass density...
Loading historical data...
Loading historical data...
Loading historical data...
Loading historical data...
Loading historical data...
Loading historical data...
Loading historical data...

Documentation

Showing up to 5 results
|